Content
SEND FEEDBACK

Daily
Averages
Monthly
Summary
United States of America

ELSBERRY, MISSOURI


Home > North America > United States > Missouri
Elevation: 133 meters     Latitude: 39 09N     Longitude: 090 46W

WEATHER
 
SELECT A DAY
Number of Records: 169,546;   Date Range: 10/8/98 - 9/30/14
 
SHARE

PRINT THIS DATA

[ ← Previous Day ]
WEATHER ALMANAC - 13 FEBRUARY, 2013
[ Next Day → ]
[ °F ]   °C
Weather ElementAverageHighLow
Temperature5.3 °C11.7 °C (2:54 pm)0.6 °C (6:54 am)
Dewpoint-1.6 °C-0.6 °C (6:54 pm)-2.8 °C (1:54 pm)
Humidity64.3 %82 % (2:54 am)37 % (3:54 pm)
Barometer1011.2 hPa1013.5 hPa (1:54 am)1009.5 hPa (1:54 pm)
Wind Speed9.7 km/h22.2 km/h (2:54 pm)
Wind Gust31.5 km/h (3:54 pm)
Weather ElementAverage
Visibility15.8 km
Wind DirectionSSW (209.6 °)

Weather ElementTotal
Precipitation---
Heating Degree Days12.2 (Base 18.3)
Averaged from 23 records on 13 February, 2013
WEATHER CONDITIONS BREAKOUT
WIND DIRECTION BREAKOUT
WEATHER BY HOUR - 13 FEBRUARY, 2013
[ °F ]   °C
Local TimeTemperatureDewpointHumidityBarometerVisibilityWind DirectionWind SpeedGust SpeedPrecipitationEventsConditions
1:54 AM2.2 °C-1.1 °C79 %1013.5 hPa16.1 kmCalmOvercast
2:54 AM1.7 °C-1.1 °C82 %1013.2 hPa16.1 kmWNW (300°)5.6 km/hOvercast
3:54 AM2.2 °C-1.1 °C79 %1012.2 hPa16.1 kmCalmScattered Clouds
4:54 AM2.2 °C-2.2 °C73 %1011.9 hPa16.1 kmWest (260°)7.4 km/hScattered Clouds
5:54 AM1.1 °C-2.2 °C79 %1011.9 hPa16.1 kmCalmClear
6:54 AM0.6 °C-2.2 °C82 %1012.2 hPa16.1 kmWSW (240°)5.6 km/hClear
7:54 AM0.6 °C-2.2 °C82 %1012.5 hPa12.9 kmSSW (210°)5.6 km/hClear
8:54 AM2.8 °C-1.1 °C76 %1012.5 hPa12.9 kmSW (230°)5.6 km/hClear
9:54 AM5.6 °C-2.2 °C58 %1012.2 hPa16.1 kmWest (260°)11.1 km/hClear
10:54 AM7.2 °C-1.7 °C53 %1011.5 hPa16.1 kmWSW (250°)13 km/hClear
11:54 AM9.4 °C-1.1 °C48 %1011.2 hPa16.1 kmWSW (250°)13 km/hClear
12:54 PM10.6 °C-2.2 °C41 %1010.2 hPa16.1 kmWest (270°)20.4 km/hClear
1:54 PM10.6 °C-2.8 °C39 %1009.5 hPa16.1 kmWest (270°)14.8 km/hClear
2:54 PM11.7 °C-2.2 °C38 %1009.5 hPa16.1 kmWest (280°)22.2 km/hClear
3:54 PM11.7 °C-2.8 °C37 %1009.5 hPa16.1 kmWest (280°)22.2 km/h31.5 km/hClear
4:54 PM10 °C-2.2 °C43 %1009.8 hPa16.1 kmWest (270°)18.5 km/hClear
5:54 PM8.3 °C-1.1 °C52 %1010.2 hPa16.1 kmWest (270°)9.3 km/hClear
6:54 PM5.6 °C-0.6 °C65 %1010.5 hPa16.1 kmWest (270°)7.4 km/hClear
7:54 PM3.3 °C-0.6 °C76 %1010.8 hPa16.1 kmCalmClear
8:54 PM3.3 °C-1.7 °C70 %1011.2 hPa16.1 kmSW (230°)9.3 km/hClear
9:54 PM4.4 °C-0.6 °C70 %1011.2 hPa16.1 kmWSW (240°)14.8 km/hClear
10:54 PM2.8 °C-0.6 °C79 %1011.2 hPa16.1 kmSW (230°)11.1 km/hClear
11:54 PM2.8 °C-0.6 °C79 %1010.8 hPa16.1 kmSSW (210°)5.6 km/hClear
Hourly data recorded from KSET, located 0 kilometers away from Elsberry, Missouri







STORIES FROM OUR PARTNERS